2023/02/19 00:00:00,22.7, 8.9
2023/02/19 00:10:00,22.6, 9.2
2023/02/19 00:20:00,22.1, 9.6
2023/02/19 00:30:00,21.9, 8.5
2023/02/19 00:40:00,21.9, 8.4
2023/02/19 00:50:00,21.9, 8.7
2023/02/19 01:00:00,22.0, 8.2
2023/02/19 01:10:00,21.8, 8.1
2023/02/19 01:20:00,21.8, 8.2
2023/02/19 01:30:00,21.8, 7.8
2023/02/19 01:40:00,21.8, 7.6
2023/02/19 01:50:00,21.9, 7.8
2023/02/19 02:00:00,21.6, 7.8
2023/02/19 02:10:00,21.1, 8.0
2023/02/19 02:20:00,21.1, 8.7
2023/02/19 02:30:00,20.9, 8.1
2023/02/19 02:40:00,20.8, 8.5
2023/02/19 02:50:00,21.0, 8.2
2023/02/19 03:00:00,20.6, 8.5
2023/02/19 03:10:00,20.4, 8.4
2023/02/19 03:20:00,20.7, 8.1
2023/02/19 03:30:00,21.0, 8.4
2023/02/19 03:40:00,21.0, 8.5
2023/02/19 03:50:00,21.1, 8.1
2023/02/19 04:00:00,20.8, 8.8
2023/02/19 04:10:00,20.6, 9.0
2023/02/19 04:20:00,20.6, 8.9
2023/02/19 04:30:00,20.4, 8.8
2023/02/19 04:40:00,20.1, 8.4
2023/02/19 04:50:00,20.0, 8.2
2023/02/19 05:00:00,19.9, 8.5
2023/02/19 05:10:00,20.0, 8.1
2023/02/19 05:20:00,20.0, 8.7
2023/02/19 05:30:00,19.6, 8.2
2023/02/19 05:40:00,19.5, 7.9
2023/02/19 05:50:00,19.4, 7.7
2023/02/19 06:00:00,19.2, 7.8
2023/02/19 06:10:00,19.2, 7.8
2023/02/19 06:20:00,19.0, 7.8
2023/02/19 06:30:00,19.0, 7.4
2023/02/19 06:40:00,18.8, 7.1
2023/02/19 06:50:00,18.7, 7.3
2023/02/19 07:00:00,18.7, 8.2
2023/02/19 07:10:00,18.8, 8.4
2023/02/19 07:20:00,18.9, 9.0
2023/02/19 07:30:00,18.7, 8.1
2023/02/19 07:40:00,18.8, 8.2
2023/02/19 07:50:00,18.9, 8.1
2023/02/19 08:00:00,18.9, 8.3
2023/02/19 08:10:00,18.7, 8.7
2023/02/19 08:20:00,18.5, 8.6
2023/02/19 08:30:00,18.4, 8.2
2023/02/19 08:40:00,18.3, 8.9
2023/02/19 08:50:00,18.3, 8.7
2023/02/19 09:00:00,18.3, 8.7
2023/02/19 09:10:00,18.2, 8.1
2023/02/19 09:20:00,18.0, 8.6
2023/02/19 09:30:00,17.9, 8.5
2023/02/19 09:40:00,17.9, 7.7
2023/02/19 09:50:00,17.4, 7.4
2023/02/19 10:00:00,16.5, 7.1
2023/02/19 10:10:00,15.7, 6.2
2023/02/19 10:20:00,15.6, 6.3
2023/02/19 10:30:00,15.7, 6.3
2023/02/19 10:40:00,15.8, 6.7
2023/02/19 10:50:00,16.0, 5.7
2023/02/19 11:00:00,16.0, 5.8
2023/02/19 11:10:00,15.4, 5.8
2023/02/19 11:20:00,14.5, 5.7
2023/02/19 11:30:00,14.4, 6.0
2023/02/19 11:40:00,14.2, 5.7
2023/02/19 11:50:00,13.8, 5.1
2023/02/19 12:00:00,13.6, 5.3
2023/02/19 12:10:00,13.6, 5.2
2023/02/19 12:20:00,13.6, 5.3
2023/02/19 12:30:00,13.7, 5.6
2023/02/19 12:40:00,13.6, 5.0
2023/02/19 12:50:00,13.5, 5.2
2023/02/19 13:00:00,13.5, 5.3
2023/02/19 13:10:00,13.5, 5.3
2023/02/19 13:20:00,13.8, 5.7
2023/02/19 13:30:00,13.8, 5.7
2023/02/19 13:40:00,13.7, 5.7
2023/02/19 13:50:00,13.6, 6.0
2023/02/19 14:00:00,13.6, 5.9
2023/02/19 14:10:00,13.5, 6.0
2023/02/19 14:20:00,13.4, 5.9
2023/02/19 14:30:00,13.4, 5.9
2023/02/19 14:40:00,13.4, 5.8
2023/02/19 14:50:00,13.3, 5.9
2023/02/19 15:00:00,13.5, 6.0
2023/02/19 15:10:00,13.4, 5.7
2023/02/19 15:20:00,13.1, 5.8
2023/02/19 15:30:00,13.0, 5.8
2023/02/19 15:40:00,12.9, 5.6
2023/02/19 15:50:00,12.9, 5.6
2023/02/19 16:00:00,12.8, 5.7
2023/02/19 16:10:00,12.6, 5.3
2023/02/19 16:20:00,12.5, 5.3
2023/02/19 16:30:00,12.6, 5.6
2023/02/19 16:40:00,12.1, 5.3
2023/02/19 16:50:00,11.8, 5.3
2023/02/19 17:00:00,11.7, 5.3
2023/02/19 17:10:00,11.2, 5.1
2023/02/19 17:20:00,11.0, 4.9
2023/02/19 17:30:00,11.1, 5.0
2023/02/19 17:40:00,11.1, 4.9
2023/02/19 17:50:00,11.0, 5.1
2023/02/19 18:00:00,11.1, 4.9
2023/02/19 18:10:00,11.1, 5.0
2023/02/19 18:20:00,11.2, 5.2
2023/02/19 18:30:00,11.1, 4.8
2023/02/19 18:40:00,11.2, 4.7
2023/02/19 18:50:00,11.3, 4.8
2023/02/19 19:00:00,11.2, 4.4
2023/02/19 19:10:00,11.1, 4.2
2023/02/19 19:20:00,11.4, 3.6
2023/02/19 19:30:00,11.4, 4.2
2023/02/19 19:40:00,11.5, 4.5
2023/02/19 19:50:00,11.4, 4.5
2023/02/19 20:00:00,10.9, 4.5
2023/02/19 20:10:00,10.5, 4.5
2023/02/19 20:20:00,10.5, 3.3
2023/02/19 20:30:00,10.5, 3.8
2023/02/19 20:40:00,10.3, 4.5
2023/02/19 20:50:00,10.2, 4.6
2023/02/19 21:00:00,10.2, 4.3
2023/02/19 21:10:00,10.1, 4.4
2023/02/19 21:20:00,10.1, 4.7
2023/02/19 21:30:00,10.3, 4.2
2023/02/19 21:40:00,10.4, 4.2
2023/02/19 21:50:00,10.0, 4.4
2023/02/19 22:00:00,10.0, 4.4
2023/02/19 22:10:00,10.2, 4.5
2023/02/19 22:20:00,10.2, 4.5
2023/02/19 22:30:00,10.1, 4.6
2023/02/19 22:40:00, 9.8, 4.3
2023/02/19 22:50:00, 9.8, 4.5
2023/02/19 23:00:00, 9.6, 4.4
2023/02/19 23:10:00, 9.3, 4.7
2023/02/19 23:20:00, 9.3, 4.1
2023/02/19 23:30:00, 9.4, 4.2
2023/02/19 23:40:00, 9.4, 4.3
2023/02/19 23:50:00, 9.6, 3.9
